sat.trackr.live / text

‹ back to catalog

STARLINK-36490

NORAD 67305 · 2026-002A

PAYLOAD ACTIVE UNKNOWN

§ Identity

Operator
Country
US
Launch date
2026-01-04
Launch site
AFETR
Launch vehicle
Mass (kg)
RCS (m²)

Purposes: comms

External: N2YO · Heavens-Above · Gunter

§ Orbital elements

Epoch: 2026-09-19T19:56:24.012672Z

Period
94.27 min
Inclination
43.0002°
Eccentricity
0.0001192
Mean motion
15.27584018 rev/d
Perigee alt
482.2 km
Apogee alt
483.9 km
Semi-major
6,861.2 km
B*
5.4658e-4
RAAN
308.5701°
Arg perigee
282.6978°
Mean anomaly
77.3740°
Rev number
4,083

§ Raw data

STARLINK-364901 67305U 26002A   26262.83083348  .00014811  00000+0  54658-3 0  99912 67305  43.0002 308.5701 0001192 282.6978  77.3740 15.27584018 40835

JSON: /api/v1/satellites/67305 · /tle

For live sub-satellite position, see the globe view (requires WebGL).

§ Visibility from observer

Set your observer location to see the next 7 days of passes ≥ 10°. The values pass through the URL so the page stays shareable.

No JS? Fill the form by hand. The geolocation button needs JavaScript.